Location: Quedlinburg
(51.7921°N, 11.1414°E)
Time: 20:56:23
(UTC+02:00)

SEEDS - Pass Details

Date: 21 March 2026
Orbit: 470 x 477 km, 97.8° (Epoch: 21 April)

Event Time Altitude Azimuth Distance (km) Brightness Sun altitude
Rises 05:39:59 0° 16° (NNE) 2,556 ? -6.4°
Reaches altitude 10° 05:42:04 10° 19° (NNE) 1,669 ? -6.1°
Maximum altitude 05:45:38 68° 103° (ESE) 523 ? -5.5°
Drops below altitude 10° 05:49:10 10° 186° (S) 1,647 ? -5.0°
Sets 05:51:13 0° 189° (S) 2,518 ? -4.7°
